Location: Bouillancy
(49.1149°N, 2.9308°E)
Time: 22:24:54
(UTC+00:00)

CZ-4C R/B - Pass Details

Date: 30 September 2020
Orbit: 626 x 1376 km, 63.4° (Epoch: 25 October)

Event Time Altitude Azimuth Distance (km) Brightness Sun altitude
Rises 22:19:22 0° 278° (W) 3,277 5.6 -41.2°
Reaches altitude 10° 22:22:03 10° 292° (WNW) 2,459 5.0 -41.4°
Maximum altitude 22:26:46 25° 347° (NNW) 1,799 4.3 -41.7°
Drops below altitude 10° 22:32:13 10° 41° (NE) 2,895 5.2 -42.1°
Sets 22:35:42 0° 54° (NE) 3,992 5.8 -42.3°
